Weather History for Akron Canton, OH

Change the Weather History Date:

Thursday, March 20, 2014

  Actual Average Record
Temperature  
Mean Temperature 36 °F 39 °F  
Max Temperature 41 °F 48 °F 81 °F (2012)
Min Temperature 30 °F 30 °F 10 °F (1965)
Degree Days  
Heating Degree Days 29 26  
Month to date heating degree days 680 589  
Since 1 July heating degree days 5503 5133  
Cooling Degree Days 0 0  
Month to date cooling degree days 0 0  
Year to date cooling degree days 0 0  
Moisture  
Dew Point 30 °F    
Average Humidity 75    
Maximum Humidity 92    
Minimum Humidity 57    
Precipitation  
Precipitation T in 0.10 in 0.57 in (2004)
Month to date precipitation 0.74 1.82  
Year to date precipitation 4.25 6.74  
Snow  
Snow T in 0.20 in - ()
Month to date snowfall 5.2 6.0  
Since 1 July snowfall 64.5 42.5  
Snow Depth 0.00 in    
Sea Level Pressure  
Sea Level Pressure 29.97 in    
Wind  
Wind Speed 15 mph (West)    
Max Wind Speed 24 mph    
Max Gust Speed 24 mph    
Visibility 8 miles    
Events Snow    
T = Trace of Precipitation, MM = Missing Value Source: NWS Daily Summary

Daily Weather History Graph

Daily Weather History Graph

Search for Another Location

Airport:

Trip Planner

Search our weather history database for the weather conditions in past years. The results will help you decide how hot, cold, wet, or windy it might be!

Date:

Astronomy

Mar. 20, 2014 Rise Set
Actual Time 7:29 AM EDT 7:37 PM EDT
Civil Twilight 7:01 AM EDT 8:05 PM EDT
Nautical Twilight 6:29 AM EDT 8:37 PM EDT
Astronomical Twilight 5:57 AM EDT 9:10 PM EDT
Moon 11:58 PM EDT (3/20) 9:32 AM EDT (3/20)
Length of Visible Light 13h 03m
Length of Day
12h 08m
Waning Gibbous, 84% of the Moon is Illuminated
Mar 20
Waning Gibbous
Mar 23
Last Quarter
Mar 30
New
Apr 7
First Quarter
Apr 15
Full

Hourly Weather History & Observations

Time (EDT) Temp. Windchill Dew Point Humidity Pressure Visibility Wind Dir Wind Speed Gust Speed Precip Events Conditions
12:51 AM 37.9 °F 28.9 °F 37.0 °F 97% 29.88 in 8.0 mi WNW 16.1 mph - 0.00 in   Overcast
1:51 AM 37.9 °F 30.0 °F 35.1 °F 89% 29.89 in 8.0 mi WNW 12.7 mph - N/A   Overcast
2:37 AM 37.4 °F 29.3 °F 33.8 °F 87% 29.87 in 9.0 mi WNW 12.7 mph - N/A   Overcast
2:51 AM 37.9 °F 30.0 °F 33.1 °F 83% 29.90 in 9.0 mi WNW 12.7 mph - N/A   Overcast
3:51 AM 35.1 °F 27.4 °F 34.0 °F 96% 29.89 in 5.0 mi WSW 10.4 mph - N/A   Overcast
4:51 AM 35.1 °F 24.8 °F 33.1 °F 92% 29.90 in 5.0 mi WSW 17.3 mph - 0.00 in   Overcast
5:51 AM 34.0 °F 24.6 °F 32.0 °F 92% 29.91 in 5.0 mi West 13.8 mph - 0.00 in Snow Light Snow
6:51 AM 34.0 °F 23.4 °F 28.9 °F 82% 29.94 in 6.0 mi West 17.3 mph - 0.00 in   Overcast
7:51 AM 34.0 °F 22.1 °F 30.0 °F 85% 29.94 in 6.0 mi West 21.9 mph - N/A   Overcast
8:51 AM 34.0 °F 22.7 °F 28.0 °F 79% 29.96 in 7.0 mi WSW 19.6 mph - 0.00 in   Overcast
9:51 AM 34.0 °F 21.5 °F 30.0 °F 85% 29.98 in 7.0 mi West 24.2 mph - N/A   Overcast
10:51 AM 36.0 °F 26.3 °F 32.0 °F 86% 30.00 in 8.0 mi West 16.1 mph - N/A   Overcast
11:51 AM 36.0 °F 25.6 °F 30.0 °F 79% 30.01 in 10.0 mi West 18.4 mph - N/A   Overcast
12:51 PM 34.0 °F 22.4 °F 27.0 °F 75% 30.01 in 10.0 mi WNW 20.7 mph - N/A   Overcast
1:51 PM 34.0 °F 21.5 °F 26.1 °F 73% 30.00 in 10.0 mi WNW 24.2 mph - 0.00 in Snow Light Snow
2:51 PM 36.0 °F 24.7 °F 24.1 °F 62% 29.99 in 10.0 mi West 21.9 mph - 0.00 in   Mostly Cloudy
3:51 PM 39.2 °F 30.2 °F 26.1 °F 59% 29.99 in 10.0 mi West 17.3 mph - N/A   Mostly Cloudy
4:51 PM 40.1 °F 31.3 °F 26.2 °F 58% 29.99 in 10.0 mi West 17.3 mph - N/A   Overcast
5:51 PM 41.2 °F 33.7 °F 27.5 °F 58% 29.99 in 10.0 mi West 13.8 mph - N/A   Mostly Cloudy
6:51 PM 39.7 °F 32.7 °F 27.9 °F 63% 30.00 in 10.0 mi WNW 11.5 mph - N/A   Mostly Cloudy
7:51 PM 38.5 °F 31.1 °F 27.3 °F 64% 30.02 in 10.0 mi WNW 11.5 mph - N/A   Overcast
8:51 PM 37.4 °F 29.8 °F 27.5 °F 67% 30.04 in 10.0 mi West 11.5 mph - N/A   Mostly Cloudy
9:51 PM 35.2 °F 28.1 °F 27.7 °F 74% 30.04 in 10.0 mi West 9.2 mph - N/A   Mostly Cloudy
10:51 PM 32.9 °F 28.5 °F 27.5 °F 81% 30.04 in 10.0 mi WNW 4.6 mph - N/A   Scattered Clouds
11:51 PM 31.1 °F - 27.0 °F 85% 30.06 in 10.0 mi Calm Calm - N/A   Scattered Clouds